|
NORAD ID: 26528 Int'l Code: 1965-108AP
Perigee: 935.8 km
Apogee: 30,130.2 km
Inclination: 27.9 °
Period: 537.7 minutes
Semi major axis: 21903 km
Launch date: December 21, 1965
Source: United States (US)
Note: This is SATELLITE DEBRIS
Two Line Element Set (TLE):
1 26528U 65108AP 13136.75412873 -.00000100 00000-0 -10758-2 0 1116
2 26528 027.9277 330.9076 6664169 135.1113 353.6093 02.67804443140787
Source:
NASA's NSSDC Master Catalog entry for TITAN 3C TRANSTAGE DEB
|